Location: *
(33.3200°N, 8.3381°W)
Time: 13:57:50
(UTC+00:00)

SL-8 R/B - Pass Details

Date: 09 April 2020
Orbit: 656 x 667 km, 48.4° (Epoch: 04 June)

Event Time Altitude Azimuth Distance (km) Brightness Sun altitude
Rises 20:00:12 0° 306° (NW) 2,979 8.6 -13.0°
Reaches altitude 10° 20:02:33 10° 304° (NW) 2,065 7.6 -13.5°
Maximum altitude 20:07:16 67° 222° (SW) 711 3.9 -14.4°
Enters shadow 20:10:34 19° 144° (SE) 1,530 5.1 -15.1°
